When you browse on this site, cookies collect data to enhance your experience and personalize the content and advertising you see.
Visit our Privacy Policy to learn more. By continuing to use the site, you agree to this use of cookies and data.
  • In Hungary
  • List of Countries
  • For 7 days
  • Water Temperature
  • Satellite Maps
  • Weather Map
  • News
  • Weather Widgets
  • user-avatar
    Login

    Hourly Weather Mława

    Today, 18 June, Tuesday

    Time Temperature Precipitation Wind Pressure Humidity
    00:00 +13°C° 0 mm 2 mps 753 mmHg 85%
    01:00 +13°C° 0 mm 2 mps 753 mmHg 87%
    02:00 +13°C° 0 mm 1 mps 753 mmHg 87%
    03:00 +12°C° 0 mm 1 mps 753 mmHg 86%
    04:00 +12°C° 0 mm 1 mps 753 mmHg 86%
    05:00 +14°C° 0 mm 1 mps 753 mmHg 81%
    06:00 +16°C° 0 mm 1 mps 753 mmHg 76%
    07:00 +19°C° 0 mm 1 mps 753 mmHg 71%
    08:00 +20°C° 0 mm 1 mps 753 mmHg 67%
    09:00 +20°C° 0 mm 2 mps 753 mmHg 63%
    10:00 +23°C° 0 mm 2 mps 753 mmHg 59%
    11:00 +23°C° 0 mm 2 mps 753 mmHg 58%
    12:00 +24°C° 0 mm 2 mps 752 mmHg 56%
    13:00 +24°C° 0 mm 2 mps 752 mmHg 54%
    14:00 +24°C° 0 mm 2 mps 752 mmHg 55%
    15:00 +25°C° 0 mm 2 mps 751 mmHg 57%
    16:00 +25°C° 0 mm 2 mps 751 mmHg 58%
    17:00 +23°C° 0 mm 2 mps 751 mmHg 63%
    18:00 +21°C° 0 mm 2 mps 750 mmHg 69%
    19:00 +21°C° 0 mm 1 mps 750 mmHg 74%
    20:00 +19°C° 0 mm 2 mps 750 mmHg 76%
    21:00 +18°C° 0 mm 2 mps 750 mmHg 79%
    22:00 +17°C° 0 mm 2 mps 750 mmHg 81%
    23:00 +16°C° 0 mm 2 mps 750 mmHg 82%

    Tomorrow, 19 June, Wednesday

    Time Temperature Precipitation Wind Pressure Humidity
    00:00 +16°C° 0 mm 3 mps 750 mmHg 84%
    01:00 +14°C° 0 mm 3 mps 750 mmHg 85%
    02:00 +14°C° 0 mm 3 mps 749 mmHg 86%
    03:00 +14°C° 0 mm 3 mps 749 mmHg 87%
    04:00 +14°C° 0 mm 3 mps 749 mmHg 87%
    05:00 +17°C° 0 mm 3 mps 749 mmHg 85%
    06:00 +18°C° 0 mm 4 mps 749 mmHg 84%
    07:00 +20°C° 0 mm 4 mps 749 mmHg 82%
    08:00 +21°C° 0.5 mm 4 mps 748 mmHg 80%
    09:00 +22°C° 0.5 mm 5 mps 748 mmHg 77%
    10:00 +25°C° 0.5 mm 5 mps 748 mmHg 75%
    11:00 +25°C° 0.9 mm 5 mps 747 mmHg 74%
    12:00 +26°C° 0.9 mm 5 mps 747 mmHg 73%
    13:00 +26°C° 0.9 mm 5 mps 746 mmHg 71%
    14:00 +26°C° 2.2 mm 5 mps 746 mmHg 73%
    15:00 +26°C° 2.2 mm 5 mps 746 mmHg 75%
    16:00 +26°C° 2.2 mm 4 mps 745 mmHg 78%
    17:00 +25°C° 0.6 mm 4 mps 745 mmHg 81%
    18:00 +24°C° 0.6 mm 3 mps 745 mmHg 84%
    19:00 +24°C° 0.6 mm 2 mps 745 mmHg 87%
    20:00 +23°C° 0.1 mm 2 mps 745 mmHg 89%
    21:00 +21°C° 0.1 mm 2 mps 745 mmHg 91%
    22:00 +20°C° 0.1 mm 2 mps 745 mmHg 93%
    23:00 +19°C° 0 mm 2 mps 745 mmHg 93%

    Day after tomorrow, 20 June, Thursday

    Time Temperature Precipitation Wind Pressure Humidity
    00:00 +19°C° 0 mm 2 mps 744 mmHg 93%
    01:00 +19°C° 0 mm 2 mps 744 mmHg 93%
    02:00 +20°C° 0 mm 1 mps 744 mmHg 93%
    03:00 +20°C° 0 mm 1 mps 744 mmHg 92%
    04:00 +20°C° 0 mm 1 mps 744 mmHg 92%
    05:00 +21°C° 0 mm 1 mps 744 mmHg 88%
    06:00 +23°C° 0 mm 1 mps 744 mmHg 84%
    07:00 +22°C° 0 mm 0 mps 745 mmHg 79%
    08:00 +25°C° 0 mm 1 mps 745 mmHg 73%
    09:00 +26°C° 0 mm 1 mps 745 mmHg 67%
    10:00 +28°C° 0 mm 2 mps 745 mmHg 61%
    11:00 +28°C° 0 mm 2 mps 745 mmHg 59%
    12:00 +29°C° 0 mm 2 mps 745 mmHg 57%
    13:00 +29°C° 0 mm 2 mps 745 mmHg 55%
    14:00 +29°C° 0 mm 2 mps 744 mmHg 55%
    15:00 +29°C° 0 mm 2 mps 744 mmHg 56%
    16:00 +29°C° 0 mm 2 mps 744 mmHg 56%
    17:00 +28°C° 0 mm 1 mps 744 mmHg 61%
    18:00 +27°C° 0 mm 1 mps 744 mmHg 65%
    19:00 +24°C° 0 mm 0 mps 745 mmHg 70%
    20:00 +25°C° 0.4 mm 1 mps 745 mmHg 74%
    21:00 +23°C° 0.4 mm 1 mps 745 mmHg 77%
    22:00 +22°C° 0.4 mm 1 mps 745 mmHg 81%
    23:00 +21°C° 0.2 mm 1 mps 745 mmHg 83%

    21 June, Friday

    Time Temperature Precipitation Wind Pressure Humidity
    00:00 +21°C° 0.2 mm 1 mps 746 mmHg 84%
    01:00 +18°C° 0.2 mm 0 mps 746 mmHg 86%
    02:00 +20°C° 0.1 mm 1 mps 746 mmHg 87%
    03:00 +20°C° 0.1 mm 1 mps 746 mmHg 89%
    04:00 +18°C° 0.1 mm 2 mps 746 mmHg 91%
    05:00 +20°C° 0.1 mm 2 mps 746 mmHg 89%
    06:00 +21°C° 0.1 mm 2 mps 746 mmHg 86%
    07:00 +23°C° 0.1 mm 2 mps 747 mmHg 84%
    08:00 +25°C° 0.9 mm 2 mps 747 mmHg 78%
    09:00 +26°C° 0.9 mm 1 mps 747 mmHg 72%
    10:00 +28°C° 0.9 mm 1 mps 747 mmHg 65%
    11:00 +28°C° 0.4 mm 1 mps 746 mmHg 63%
    12:00 +28°C° 0.4 mm 1 mps 746 mmHg 60%
    13:00 +29°C° 0.4 mm 1 mps 746 mmHg 57%
    14:00 +29°C° 1.4 mm 1 mps 746 mmHg 60%
    15:00 +28°C° 1.4 mm 1 mps 746 mmHg 63%
    16:00 +28°C° 1.4 mm 1 mps 745 mmHg 66%
    17:00 +26°C° 1.5 mm 2 mps 746 mmHg 74%
    18:00 +24°C° 1.5 mm 3 mps 746 mmHg 82%
    19:00 +21°C° 1.5 mm 4 mps 746 mmHg 90%
    20:00 +20°C° 2.2 mm 4 mps 746 mmHg 92%
    21:00 +19°C° 2.2 mm 4 mps 746 mmHg 94%
    22:00 +18°C° 2.2 mm 3 mps 746 mmHg 97%
    23:00 +18°C° 0.3 mm 3 mps 747 mmHg 96%

    22 June, Saturday

    Time Temperature Precipitation Wind Pressure Humidity
    00:00 +17°C° 0.3 mm 3 mps 747 mmHg 96%
    01:00 +17°C° 0.3 mm 3 mps 747 mmHg 95%
    02:00 +16°C° 0 mm 3 mps 747 mmHg 95%
    03:00 +16°C° 0 mm 3 mps 747 mmHg 96%
    04:00 +15°C° 0 mm 4 mps 748 mmHg 96%
    05:00 +15°C° 0 mm 4 mps 748 mmHg 94%
    06:00 +17°C° 0 mm 4 mps 749 mmHg 93%
    07:00 +17°C° 0 mm 4 mps 749 mmHg 91%
    08:00 +18°C° 0 mm 4 mps 749 mmHg 88%
    09:00 +18°C° 0 mm 4 mps 750 mmHg 84%
    10:00 +19°C° 0 mm 4 mps 750 mmHg 81%
    11:00 +20°C° 0 mm 4 mps 750 mmHg 76%
    12:00 +21°C° 0 mm 4 mps 750 mmHg 71%
    13:00 +22°C° 0 mm 4 mps 751 mmHg 66%
    14:00 +22°C° 0 mm 5 mps 751 mmHg 66%
    15:00 +22°C° 0 mm 5 mps 751 mmHg 66%
    16:00 +21°C° 0 mm 5 mps 751 mmHg 66%
    17:00 +20°C° 0 mm 5 mps 751 mmHg 71%
    18:00 +19°C° 0 mm 4 mps 751 mmHg 76%
    19:00 +18°C° 0 mm 4 mps 751 mmHg 81%
    20:00 +16°C° 0 mm 3 mps 751 mmHg 84%
    21:00 +14°C° 0 mm 3 mps 752 mmHg 87%
    22:00 +13°C° 0 mm 3 mps 752 mmHg 90%
    23:00 +13°C° 0 mm 3 mps 752 mmHg 87%

    23 June, Sunday

    Time Temperature Precipitation Wind Pressure Humidity
    00:00 +13°C° 0 mm 4 mps 752 mmHg 83%
    01:00 +13°C° 0 mm 4 mps 752 mmHg 80%
    02:00 +12°C° 0 mm 4 mps 752 mmHg 80%
    03:00 +11°C° 0 mm 4 mps 752 mmHg 80%
    04:00 +11°C° 0 mm 3 mps 752 mmHg 81%
    05:00 +12°C° 0 mm 3 mps 752 mmHg 79%
    06:00 +13°C° 0 mm 3 mps 752 mmHg 77%
    07:00 +16°C° 0 mm 3 mps 752 mmHg 75%
    08:00 +17°C° 0 mm 3 mps 752 mmHg 71%
    09:00 +19°C° 0 mm 3 mps 752 mmHg 68%
    10:00 +21°C° 0 mm 3 mps 752 mmHg 65%
    11:00 +21°C° 0 mm 3 mps 752 mmHg 63%
    12:00 +22°C° 0 mm 3 mps 752 mmHg 61%
    13:00 +24°C° 0 mm 3 mps 752 mmHg 59%
    14:00 +22°C° 0 mm 4 mps 752 mmHg 62%
    15:00 +22°C° 0 mm 4 mps 752 mmHg 64%
    16:00 +22°C° 0 mm 4 mps 752 mmHg 67%
    17:00 +20°C° 0 mm 4 mps 752 mmHg 71%
    18:00 +19°C° 0 mm 4 mps 752 mmHg 75%
    19:00 +18°C° 0 mm 3 mps 752 mmHg 80%
    20:00 +16°C° 0 mm 3 mps 753 mmHg 81%
    21:00 +14°C° 0 mm 3 mps 753 mmHg 83%
    22:00 +13°C° 0 mm 3 mps 753 mmHg 85%
    23:00 +12°C° 0 mm 3 mps 753 mmHg 85%
    Show more